ONEWEB-0018 (45434 NORAD) Tracking and Keplerian Element Data

This shows tracking and keplerian element data for the satellite.

Feedback or suggestion? Click here.




ElementValue
Catalog45434
NameONEWEB-0018
Epoch Orbit3222
Epoch Day298.25001157
Epoch Year2020
RAAN71.6443
Inclination87.7843
Eccentricity0.002025
Argument of Perigee246.9009
Mean Anonmoly78.5762
Mean Motion13.97073229
Decay Rate-0.00943514
L11 45434U 20020L 20298.25001157 -.00943514 00000-0 -71353+0 0 9992
L22 45434 87.7843 71.6443 0020250 246.9009 78.5762 13.97073229 32220

Live tracking and technical data element details for ONEWEB-0018 (NORAD 45434). ONEWEB-0018 can be tracked NOW for your location showing map with azimuth and elevation plus other details from your city location.

Track the satellite on the map from your city or location and see movement details for azimuth, elevation, latitude, longitude, range, height, and movement on the map or in text.







IsCatalogInMostPopularTable: catalog: 45434, numindb: 50
Update: records affected: 1



GetName: 45434 ONEWEB-0018

Hit Count: updated at: Sun, 25 Oct 2020 00:05:07 GMT